Wind_Speed
15 14 13 12 12 12 12 13 13 13 13 13 11 10 10 10 9 8 7 6 5 4 5 6 7 8 10 10 9 7 6 4 3 3 4 5 5 6 6 7 8 8 8 7 6 5 5 5 6 6 6 6 6 6 6 6 6 6 6 6 6 7 7 8 8 9 9 9 9 9 9 9 10 10 10 10 10 9 9 10 10 11 12 12 13
16 14 13 12 12 12 12 12 13 13 14 14 13 12 11 11 11 9 8 6 5 5 6 6 8 9 10 11 11 9 7 6 4 4 4 5 6 6 7 7 8 8 8 7 6 5 5 5 6 6 6 6 6 6 6 6 6 6 7 7 8 8 9 9 9 9 8 8 8 8 8 8 8 8 8 8 8 8 9 10 10 11 12 13 13
17 15 13 12 12 12 11 12 12 13 14 14 14 13 12 13 12 10 9 7 6 6 6 7 8 10 11 12 12 10 8 7 5 5 5 6 6 7 7 7 8 7 7 7 6 6 5 5 5 5 6 6 6 6 6 6 6 7 7 7 8 8 8 8 7 7 7 7 7 7 7 7 7 7 7 7 7 8 8 9 10 11 12 13 12
18 17 15 14 13 12 12 11 12 13 14 15 15 14 13 13 13 11 9 8 7 7 7 8 8 10 11 12 12 11 9 8 7 6 6 7 7 7 8 7 7 7 7 7 6 6 5 5 5 5 5 5 5 5 6 6 6 7 7 7 7 7 7 7 7 7 7 7 7 6 6 6 6 6 6 6 7 7 8 9 10 11 12 12 12
19 19 18 16 15 13 12 11 12 13 14 15 15 15 14 14 14 12 10 9 8 8 8 9 9 10 12 13 12 11 10 9 8 7 7 8 8 8 8 7 7 7 7 7 6 5 5 5 4 4 4 4 5 5 6 6 6 7 7 7 7 7 7 7 7 7 7 7 7 6 6 6 6 6 7 7 7 8 9 10 11 11 11 11 11
20 21 19 18 17 15 13 12 11 12 13 14 15 15 15 15 15 13 11 10 9 9 9 10 10 11 12 13 13 12 11 10 9 8 8 9 9 8 8 7 7 7 7 7 6 5 4 4 4 4 4 4 4 5 5 6 6 7 7 8 8 8 8 8 8 7 7 7 6 6 7 7 7 7 7 8 8 9 10 11 11 11 11 11 11
21 21 20 19 18 16 14 13 12 12 12 13 14 15 15 16 15 14 12 11 11 10 11 11 11 11 12 13 13 13 11 10 9 9 9 9 9 9 8 8 7 7 7 7 6 5 4 3 3 3 3 3 4 5 5 6 6 7 7 8 8 9 8 8 8 8 7 7 6 7 8 7 7 8 8 9 9 10 10 11 11 11 11 11 12
22 23 21 19 18 17 15 13 13 12 12 13 14 14 15 16 16 15 13 13 12 12 12 12 12 12 13 14 14 13 12 11 11 10 10 10 10 9 9 9 8 8 7 7 6 4 3 3 3 3 3 3 3 4 5 5 6 7 7 8 8 8 8 8 8 8 8 7 7 8 7 7 8 8 8 9 9 10 10 10 11 11 11 11 12
25 26 25 22 19 18 16 14 13 13 12 13 13 14 15 16 16 16 15 14 14 13 13 12 13 13 14 14 14 14 14 13 12 11 11 10 10 9 10 10 9 8 7 6 5 4 3 3 2 2 3 3 3 4 5 5 6 7 7 8 8 8 8 9 9 8 8 8 8 7 7 7 7 8 9 9 10 10 10 11 10 11 11 12 12
24 25 26 24 21 19 17 15 14 13 13 13 14 14 15 16 16 16 17 16 15 15 14 14 14 14 15 15 15 15 15 14 13 13 12 11 10 9 10 10 10 9 7 6 5 4 3 2 2 2 2 3 3 3 4 5 6 6 7 7 7 8 8 9 8 8 7 7 7 7 7 7 7 8 9 9 10 11 11 10 10 11 11 11 12
24 24 24 23 21 20 18 16 15 14 14 14 15 15 15 17 17 17 18 18 17 16 15 14 14 14 15 15 15 15 15 15 14 14 13 12 10 9 10 10 10 9 8 7 5 4 3 2 2 2 3 2 2 3 4 4 5 5 6 7 7 7 8 8 8 8 7 7 7 6 6 6 7 8 9 10 10 11 10 10 10 11 11 11 11
27 25 24 23 21 20 19 18 16 16 15 15 16 17 17 17 18 18 18 19 18 17 16 14 14 14 15 16 15 15 15 15 15 15 14 13 11 10 10 10 11 10 8 7 5 4 3 3 2 2 3 3 2 2 3 4 4 5 5 6 6 7 7 8 8 8 7 7 7 6 6 6 7 8 9 10 11 11 10 10 11 11 11 11 11
30 26 25 23 21 20 20 20 18 17 16 16 17 18 18 18 19 19 19 20 20 19 18 17 15 15 15 16 16 16 15 15 15 15 15 14 12 11 10 11 11 10 8 7 5 4 3 3 3 3 3 3 2 1 2 3 4 4 4 5 6 6 7 7 8 7 7 7 6 6 6 6 7 8 9 10 11 10 10 10 10 11 11 11 11
24 22 23 22 22 21 21 21 20 19 18 17 17 18 20 20 20 20 21 21 22 22 23 21 18 16 16 17 18 16 16 16 16 16 15 14 12 11 11 12 12 10 9 7 5 4 3 3 3 3 3 3 2 1 2 3 4 4 4 5 6 6 7 7 7 7 7 7 7 7 7 7 7 8 9 10 10 10 10 10 10 11 11 12 12
19 18 21 21 22 22 22 22 22 21 20 19 18 19 20 21 21 22 23 24 24 23 24 24 21 18 18 18 18 17 16 16 16 16 16 15 13 12 12 13 12 11 9 7 5 4 4 4 4 4 3 3 2 1 1 3 3 3 3 4 6 7 7 7 7 7 7 7 7 7 7 7 7 8 9 10 10 10 10 9 10 10 11 12 12
25 23 23 23 22 21 22 23 23 23 22 22 21 20 21 22 23 24 25 25 25 25 24 25 23 20 19 18 18 18 16 16 17 16 16 15 13 13 13 14 13 12 10 8 6 5 5 5 5 5 4 3 1 0 2 3 3 3 3 4 5 6 6 7 7 7 6 7 7 7 6 6 7 8 10 10 10 10 9 9 9 10 11 11 12
26 25 24 25 23 22 22 23 24 24 25 24 24 23 23 24 25 26 27 27 26 26 26 26 24 22 20 20 20 19 17 17 18 17 16 16 14 14 14 14 14 12 10 8 6 6 5 5 5 5 4 3 2 1 2 3 3 2 2 3 4 5 6 6 6 6 6 6 7 6 6 6 7 8 9 10 10 10 9 8 9 9 10 11 12
25 24 25 25 24 24 23 24 25 25 26 25 26 25 24 25 26 27 28 28 28 27 27 26 25 23 22 22 22 21 20 19 18 18 17 16 15 15 15 16 14 13 10 8 7 6 6 6 6 6 5 4 2 1 2 3 3 2 1 2 3 4 6 6 6 6 6 7 6 6 6 6 7 8 9 10 10 9 9 8 9 9 10 11 12
28 27 27 29 27 26 25 25 26 25 26 26 27 27 26 26 26 28 30 30 28 28 28 27 25 23 22 22 22 22 21 20 19 18 17 17 16 16 16 17 15 13 11 9 8 7 7 7 7 6 5 4 3 3 3 3 3 2 2 1 2 4 5 5 5 5 7 8 7 6 6 7 7 8 9 10 10 9 9 9 9 9 10 11 12
33 34 33 32 29 28 28 27 27 26 26 27 27 27 26 26 27 28 31 32 30 29 28 28 27 24 22 22 22 22 21 20 19 18 17 17 17 17 17 17 16 14 11 10 9 8 8 8 8 7 6 5 4 4 4 3 3 2 2 1 2 3 4 4 4 4 7 9 8 7 7 7 8 8 9 10 9 9 9 9 9 10 11 11 12
35 37 36 34 33 30 30 29 28 27 28 27 27 26 26 26 27 28 31 33 30 29 29 29 28 26 23 22 22 22 21 20 19 18 17 17 17 17 18 17 15 14 12 10 10 9 9 9 9 8 7 6 5 5 4 4 3 2 3 2 0 2 3 4 4 4 7 9 8 8 8 8 8 8 9 10 9 9 9 9 9 10 11 12 12
33 36 35 33 35 33 30 30 29 28 29 28 27 26 26 26 27 28 30 32 30 28 28 28 27 25 23 22 22 21 20 19 18 17 17 17 17 17 17 17 15 13 12 10 10 10 10 10 9 8 7 6 5 5 5 4 3 3 3 2 1 1 2 4 4 4 7 8 8 8 8 8 8 8 9 10 10 10 9 9 10 10 11 12 13
29 31 32 31 32 32 32 31 31 30 30 29 27 26 26 26 27 28 30 31 29 27 26 27 26 23 23 23 22 21 20 19 18 17 17 17 17 17 17 16 15 13 12 11 11 11 10 10 9 8 7 6 6 6 5 5 4 3 3 3 2 1 1 3 4 4 6 7 8 9 9 9 8 8 9 9 10 10 10 10 10 11 11 12 13
36 35 35 35 34 33 34 34 33 32 31 30 27 25 24 25 27 28 30 31 29 26 25 26 26 25 24 24 23 22 21 19 18 17 17 17 17 17 17 16 15 13 12 11 11 11 11 10 10 9 8 7 7 7 6 5 5 3 3 4 3 2 2 2 2 4 5 6 7 8 9 9 8 8 8 9 10 10 11 10 11 11 12 12 13
44 41 36 34 34 32 33 35 35 34 33 31 28 26 24 25 27 28 30 32 30 27 26 26 26 26 26 26 25 24 23 22 20 19 18 18 18 17 17 16 15 13 12 12 12 12 11 11 10 9 8 7 7 8 7 5 5 5 4 5 4 4 4 3 2 4 6 6 7 8 9 9 9 8 8 9 10 11 11 11 11 11 12 13 13
42 40 36 32 30 29 29 32 35 37 35 32 29 28 26 26 27 28 31 33 31 29 27 27 27 27 28 27 27 27 25 24 22 21 20 19 18 17 16 15 15 14 13 12 12 12 11 11 10 9 8 7 7 8 8 6 6 6 6 6 5 5 5 5 4 5 6 7 8 8 9 9 9 8 9 9 9 10 11 11 11 12 12 13 14
38 38 40 38 34 32 31 31 32 36 38 35 32 30 29 27 26 27 32 35 33 31 29 28 28 28 28 28 29 28 26 25 24 23 22 21 19 18 17 16 16 15 14 13 13 12 12 11 10 9 8 7 8 8 8 8 7 6 7 7 6 6 6 6 6 6 6 8 8 8 9 9 9 9 9 9 10 11 11 12 12 12 13 13 14
36 38 40 39 39 38 37 34 29 30 36 36 34 33 32 29 28 26 29 35 34 32 31 30 30 30 30 30 30 29 27 27 26 25 24 23 22 20 18 17 17 16 15 14 14 13 12 11 10 9 8 8 8 8 9 9 8 7 8 9 8 7 7 6 6 6 6 7 9 9 9 9 9 9 9 10 11 11 12 12 13 13 13 13 14
38 39 41 40 40 40 40 38 30 28 31 35 35 35 35 32 30 27 26 32 35 34 33 32 32 32 32 31 30 30 29 28 28 26 25 25 24 22 20 19 18 17 17 15 14 14 13 12 11 9 9 8 8 9 9 9 8 8 9 9 9 8 8 7 6 7 7 7 8 9 9 9 9 10 10 10 11 11 12 13 13 13 13 13 14
41 39 40 42 40 41 44 41 36 34 31 34 38 37 36 34 31 30 27 30 35 37 36 35 34 34 33 32 32 31 30 30 28 27 26 26 25 23 21 20 20 19 18 16 15 15 14 13 12 10 9 9 9 9 9 9 8 8 8 10 10 9 9 8 7 8 7 7 7 8 9 9 9 10 11 11 11 12 12 13 14 14 13 14 14
42 39 39 42 38 38 43 43 41 42 37 35 39 39 38 36 34 33 31 30 35 39 39 37 36 36 35 34 33 33 32 31 29 28 27 27 26 24 22 21 21 20 19 17 16 16 15 14 12 11 10 9 9 9 10 9 8 8 8 9 10 10 10 9 8 8 7 7 7 7 8 9 9 10 11 11 12 12 13 14 14 15 15 14 14
42 40 41 44 40 32 33 39 42 42 41 38 39 42 41 40 38 35 33 33 34 38 41 39 38 38 37 36 35 34 33 32 30 29 28 27 26 25 23 22 21 21 20 19 17 17 16 15 13 12 11 10 9 10 10 9 9 8 8 9 10 11 11 10 9 8 7 7 7 7 7 8 9 10 11 12 12 13 13 14 15 15 15 15 15
45 44 44 47 47 40 33 35 38 38 38 36 35 39 41 42 42 38 35 34 33 35 39 40 40 40 39 38 37 35 34 33 31 30 29 28 27 26 25 23 22 22 21 20 18 18 17 16 14 13 12 11 10 10 10 10 9 9 8 8 9 10 12 11 10 10 8 7 7 7 7 7 9 11 12 12 13 13 13 14 15 15 16 16 16
45 46 45 46 48 47 41 36 37 38 38 37 35 34 36 39 41 40 38 35 33 35 39 41 42 42 41 40 39 37 35 34 33 31 30 29 28 27 26 24 22 22 22 20 19 18 18 17 15 14 13 12 12 11 11 11 10 10 9 8 9 10 11 12 11 11 9 8 7 7 7 8 9 10 12 13 13 13 14 14 15 15 16 17 17
45 46 46 46 45 46 45 40 37 38 38 40 39 34 33 37 38 38 40 37 33 35 39 42 43 43 43 42 40 38 37 36 34 33 32 30 29 28 27 25 24 23 22 21 20 19 19 18 17 16 14 14 14 13 12 12 11 11 10 9 8 9 10 12 11 11 10 9 7 7 7 8 10 10 11 13 14 14 14 15 15 16 16 17 17
48 47 45 45 46 46 46 43 40 39 39 39 39 37 34 35 38 39 39 37 34 34 38 42 43 44 44 42 41 39 38 37 35 34 33 32 30 29 28 26 25 24 23 21 20 19 19 19 18 17 15 15 15 14 13 13 12 11 11 10 9 9 9 10 11 10 10 9 8 7 6 7 10 11 11 13 14 14 15 15 16 16 16 16 17
50 50 48 45 46 47 46 44 43 41 41 38 36 39 37 35 37 40 41 40 38 36 37 40 42 43 44 42 41 40 39 38 36 35 34 33 32 30 29 27 26 25 24 22 21 20 20 20 19 18 16 16 15 15 15 15 14 13 12 11 10 10 9 9 10 9 9 10 9 8 6 5 8 11 12 13 14 14 14 15 15 15 15 15 16
51 50 50 48 47 47 46 46 45 43 42 41 37 38 39 37 37 38 40 42 41 38 37 40 42 44 44 42 41 40 39 38 37 36 35 34 32 31 29 28 28 26 24 22 21 21 21 21 20 19 18 17 16 16 16 16 15 14 13 12 12 11 9 8 9 9 9 9 9 8 8 7 7 9 12 13 14 15 14 14 15 15 14 14 15
52 51 51 50 49 48 46 47 48 46 45 45 43 41 39 38 38 38 39 42 44 42 39 39 43 44 44 42 41 40 40 39 38 37 36 35 33 31 30 29 28 27 25 24 23 23 23 23 22 20 19 18 18 18 18 17 16 15 14 13 13 12 11 9 8 9 10 10 9 9 9 8 7 8 10 12 14 16 17 16 15 15 14 14 14
51 51 51 51 52 49 48 48 49 50 48 48 49 47 43 39 39 40 39 41 44 45 41 39 43 44 44 44 43 42 41 40 39 37 36 35 34 32 31 30 29 28 26 26 25 25 25 24 24 22 21 20 19 19 19 18 17 16 16 14 14 13 12 10 9 9 10 10 9 8 9 9 9 9 10 11 12 14 17 17 16 15 15 14 14
49 51 50 52 53 50 49 49 50 51 51 51 50 49 46 40 38 40 39 41 44 47 43 40 43 45 45 46 45 44 43 41 39 38 37 36 36 34 32 31 29 28 28 28 27 27 26 26 25 23 22 21 20 20 19 19 18 18 17 16 15 15 13 12 11 10 10 10 10 9 9 9 10 10 10 11 12 12 15 17 16 15 15 14 14
48 51 51 52 53 51 49 50 51 52 52 51 49 48 46 40 39 41 39 40 44 47 44 42 45 49 49 48 47 45 44 43 41 39 38 38 37 36 34 32 31 30 30 30 29 28 28 27 26 24 24 23 22 21 20 20 19 19 18 17 17 16 15 14 12 11 11 11 10 10 9 9 10 10 11 12 12 12 13 15 16 16 15 15 14
48 52 53 52 53 53 50 51 53 53 52 51 50 48 47 43 42 42 40 40 44 45 44 44 47 51 52 51 49 47 46 45 43 41 39 39 38 36 35 33 32 31 31 31 30 29 29 28 27 26 25 25 24 23 22 21 20 20 20 19 18 17 16 16 14 12 12 11 11 10 10 10 10 10 11 12 13 13 13 14 14 15 15 15 15
48 51 53 52 53 54 53 53 54 55 53 51 50 49 49 47 45 43 41 42 44 45 45 46 47 50 52 51 50 48 47 47 46 43 40 39 39 37 36 34 33 32 32 31 31 30 29 29 29 28 26 26 25 25 24 22 22 21 21 20 19 18 18 17 15 14 14 12 12 11 11 11 11 11 12 13 13 14 15 14 13 14 15 14 14
49 50 52 52 53 54 55 55 55 56 54 51 51 50 49 50 49 47 44 41 42 43 44 47 47 46 47 49 51 49 48 48 47 45 42 40 41 40 37 35 34 33 33 32 32 31 30 30 30 29 28 27 27 27 26 25 24 23 22 21 20 20 19 18 17 16 15 14 13 12 11 12 12 11 12 13 14 14 16 15 13 13 14 14 13
48 50 51 52 53 54 57 58 57 57 56 53 52 51 49 48 50 51 48 45 44 42 41 44 46 45 44 47 51 52 50 50 48 46 44 42 41 42 40 37 35 34 34 33 33 32 31 31 31 30 30 29 29 28 27 27 26 24 23 23 22 21 20 18 17 17 17 15 14 13 12 12 12 11 12 13 14 15 16 16 14 13 13 14 14
48 49 50 51 53 54 57 60 61 60 58 56 54 53 51 47 48 51 52 51 50 46 41 41 44 45 46 47 51 54 52 51 50 47 46 44 42 43 41 38 36 35 35 34 33 33 32 31 31 30 31 31 31 30 29 29 27 25 25 24 23 23 21 20 18 18 18 17 15 14 13 12 12 12 12 12 13 14 16 16 15 14 14 14 14
46 48 49 50 52 54 56 60 63 62 61 60 57 56 56 51 45 46 51 52 51 50 44 40 43 47 50 48 49 53 54 52 50 49 47 46 44 44 42 38 35 35 35 34 33 33 32 31 30 31 31 32 33 32 31 30 28 27 26 25 25 24 22 21 19 18 19 18 16 15 14 13 13 14 13 14 14 14 15 15 15 14 14 15 15
44 46 48 49 51 53 56 59 62 64 63 62 61 60 60 58 51 45 46 45 45 49 49 43 42 49 54 53 51 53 56 54 51 51 49 46 45 45 42 39 36 35 35 35 34 34 33 32 32 32 32 33 34 34 32 30 29 28 27 26 26 25 24 22 20 19 20 19 18 16 15 14 14 14 15 16 15 14 14 15 15 15 14 15 15
43 45 46 48 50 52 55 58 60 64 65 63 63 63 63 62 59 54 50 44 40 43 50 47 42 45 52 55 57 57 57 55 52 51 50 46 46 46 43 40 37 36 36 35 34 34 33 33 33 33 33 35 35 35 33 32 30 30 28 28 27 27 26 24 21 20 20 20 19 18 18 17 16 16 16 17 16 14 14 15 16 16 15 15 16
42 44 45 47 48 50 53 56 58 61 64 63 63 66 66 64 62 61 59 53 47 43 46 48 44 43 47 51 57 59 56 53 51 50 49 46 46 46 43 41 39 36 35 34 34 34 33 34 34 34 35 36 36 36 35 33 32 31 30 29 29 28 27 25 23 22 22 22 21 20 19 19 19 17 17 17 17 16 15 16 16 16 16 16 16
Wind_Direction
245 246 242 241 244 248 249 250 251 254 257 257 257 255 257 256 252 250 247 244 250 259 267 269 267 267 267 263 256 248 230 209 186 165 152 148 148 146 143 132 125 122 118 113 106 98 89 83 80 78 75 71 66 62 57 52 48 43 38 33 30 25 23 19 15 14 11 6 359 354 349 346 344 343 342 342 340 338 337 337 338 337 336 336 335
247 249 246 243 243 247 248 249 251 253 257 258 258 255 255 257 254 251 250 248 250 259 265 268 267 266 265 261 255 248 238 219 197 176 159 153 152 148 144 136 129 126 121 114 107 98 92 87 85 83 79 76 69 65 60 55 51 45 40 34 30 27 25 21 19 17 14 10 3 358 352 349 346 344 343 342 340 338 337 337 337 337 338 338 337
247 250 248 246 245 248 250 251 253 254 257 261 260 257 254 255 254 251 249 250 251 256 262 265 265 264 262 258 253 247 238 223 204 183 166 157 155 152 148 141 134 130 124 116 109 103 99 95 89 84 78 75 71 66 62 56 53 49 44 39 35 32 30 27 23 21 18 15 11 6 360 354 352 348 346 343 342 339 338 338 338 339 339 339 339
249 250 250 249 249 250 253 255 256 258 259 263 263 260 256 254 253 249 247 248 250 254 258 261 262 262 259 255 251 247 238 225 209 187 170 160 157 156 152 146 140 134 127 120 113 109 107 102 93 84 79 76 73 69 64 59 56 53 50 47 43 40 36 31 26 23 20 18 17 14 8 5 3 358 353 350 349 346 344 343 342 341 341 342 343
251 250 252 251 252 254 255 257 261 263 262 263 265 262 259 256 253 248 246 246 247 251 255 258 259 260 257 252 249 246 238 227 212 192 175 163 160 159 155 152 147 140 133 127 119 117 113 103 92 82 79 78 75 72 69 64 59 56 52 47 42 38 33 29 26 22 19 20 18 20 20 17 13 9 5 3 3 0 356 351 347 345 346 348 348
254 250 251 253 252 254 257 259 263 268 267 264 264 263 260 258 255 248 245 245 246 248 251 253 255 257 254 251 248 244 238 229 214 194 179 167 163 162 158 158 154 147 141 133 125 123 115 99 87 78 74 76 75 75 72 66 61 55 47 40 34 30 28 25 24 22 22 23 21 27 29 24 22 21 21 20 17 10 0 355 352 352 353 353 350
256 253 251 253 254 255 257 258 262 268 269 266 264 263 262 259 256 249 244 245 246 248 249 251 252 253 252 249 247 244 237 230 215 197 184 173 167 166 163 162 161 155 148 139 132 128 120 103 88 79 72 72 71 73 70 65 59 53 45 37 31 28 26 24 24 24 27 27 26 33 33 29 33 34 34 28 18 10 3 359 358 357 356 353 350
260 257 254 254 255 256 256 257 259 266 268 267 265 263 262 260 257 253 247 245 245 248 249 250 251 251 250 248 246 244 238 229 216 200 188 179 172 171 168 166 167 162 156 146 141 140 130 113 95 82 74 71 70 69 67 63 56 51 46 38 30 27 26 26 26 27 29 31 33 36 36 36 41 39 33 24 15 9 5 2 0 358 356 354 351
261 257 253 254 255 256 256 256 257 262 266 266 265 265 263 262 261 258 252 247 245 246 247 249 251 251 250 248 245 243 238 230 217 203 192 185 178 176 174 171 171 167 162 155 150 151 142 122 106 95 85 76 70 66 62 57 53 48 45 39 30 25 26 27 29 30 31 35 37 38 39 41 41 36 26 18 13 8 5 3 1 360 358 355 351
257 255 251 251 253 255 255 254 256 258 262 265 265 265 265 264 263 263 257 249 246 244 244 246 249 251 249 247 246 243 238 230 217 204 196 190 184 180 178 176 176 172 168 164 157 156 152 135 117 110 100 89 78 64 57 51 49 45 41 39 31 24 27 30 31 33 36 40 41 38 39 42 36 28 20 14 10 6 5 5 4 2 359 355 351
256 254 249 249 251 253 254 253 254 257 260 262 264 264 265 265 264 264 261 253 249 243 240 242 245 248 248 246 244 241 238 230 218 206 199 195 189 185 182 181 180 176 174 172 166 161 158 153 143 128 118 106 90 67 52 45 44 41 38 38 32 28 31 35 35 33 36 41 41 38 40 39 30 22 15 10 7 5 7 7 5 1 358 353 349
251 247 244 246 249 251 252 252 252 254 258 260 263 263 263 264 264 264 262 257 251 244 240 240 242 245 246 245 241 238 236 230 218 207 202 198 193 190 185 184 183 181 178 178 175 168 166 166 167 151 138 128 110 80 48 38 39 34 37 41 34 33 38 40 40 35 33 38 39 36 37 33 25 18 12 8 5 7 8 7 4 359 355 352 347
236 235 239 242 245 249 250 250 250 252 254 258 261 263 262 262 263 264 261 257 252 250 247 243 241 243 244 244 241 235 233 229 219 209 205 201 197 195 190 186 185 184 182 183 184 178 178 180 181 172 156 143 130 90 42 28 33 28 34 46 41 38 44 45 44 40 35 37 37 32 30 26 21 15 10 7 6 7 7 5 1 357 353 350 347
222 224 233 238 241 245 249 249 249 250 253 255 259 261 261 261 262 261 259 256 254 255 254 248 242 242 243 243 243 235 230 228 219 210 207 204 201 198 193 189 186 186 185 187 192 193 192 196 198 185 174 159 147 105 35 18 23 25 31 48 51 46 48 49 46 42 37 34 33 30 25 20 18 12 8 5 4 5 5 3 0 356 352 348 346
242 239 235 237 241 243 247 250 251 251 253 255 257 260 261 261 260 258 256 256 257 256 255 250 243 241 242 242 244 238 229 228 223 213 210 208 205 202 197 190 187 186 185 190 198 208 210 210 213 202 192 181 164 117 14 6 13 19 29 48 56 56 52 50 46 41 36 32 27 25 21 16 14 8 5 2 1 2 2 2 360 355 351 347 343
256 255 246 240 239 244 246 249 252 253 254 255 256 257 259 260 259 257 254 254 256 255 254 252 246 242 241 242 243 241 233 231 228 220 216 213 210 205 199 192 188 186 185 190 202 216 225 220 218 214 208 204 199 198 351 354 0 7 24 48 59 63 58 53 48 39 33 30 23 20 18 15 10 4 2 359 358 359 360 1 359 353 348 345 341
257 256 252 243 238 243 247 249 251 253 254 255 255 255 256 257 257 256 254 251 252 253 254 254 250 244 243 244 244 242 237 234 232 227 222 219 214 208 200 194 189 186 185 190 203 218 228 228 224 223 223 227 234 290 339 345 348 353 16 46 61 66 63 58 52 38 28 28 22 17 16 12 6 1 359 357 356 356 358 358 354 350 345 343 340
255 250 250 249 246 244 245 250 251 253 254 253 253 252 253 255 256 256 255 252 249 250 251 252 250 245 245 245 244 242 238 234 232 229 226 222 216 208 199 194 189 186 187 191 202 216 225 228 229 232 236 244 253 298 332 339 335 329 348 39 65 63 62 56 46 34 21 23 21 15 13 7 2 358 358 356 354 355 355 354 349 345 343 341 339
249 244 249 254 251 245 243 248 249 250 250 250 250 250 251 253 255 255 254 252 249 248 248 248 247 244 243 243 241 240 237 234 231 228 225 222 215 207 198 192 189 186 188 193 203 214 220 223 229 236 242 254 270 297 320 327 318 304 304 357 70 66 65 51 35 31 22 15 13 12 7 2 360 357 357 355 353 353 351 348 344 341 339 339 338
249 247 250 251 245 242 240 242 245 246 246 246 247 249 249 250 252 254 252 251 250 249 247 246 244 242 241 239 238 237 236 233 230 226 222 219 212 204 196 191 189 187 189 195 204 212 216 218 225 234 242 256 277 295 308 314 308 292 280 292 79 70 64 41 21 28 25 13 2 4 1 357 358 358 356 353 351 350 347 344 340 338 337 336 335
255 249 247 245 238 237 236 236 239 242 243 244 246 249 248 247 250 252 252 251 250 250 249 245 241 240 238 235 235 234 233 232 229 224 219 215 209 201 195 191 190 189 192 196 203 211 214 215 222 232 241 258 281 296 304 308 304 283 271 276 62 68 60 38 23 8 10 5 353 355 357 356 357 359 356 350 348 346 344 341 337 335 334 333 331
256 245 241 239 232 229 229 231 234 237 241 243 247 250 248 246 249 251 251 251 250 250 249 241 236 235 234 232 232 231 230 229 227 223 218 212 205 199 194 192 192 192 195 199 203 209 213 215 220 231 243 260 282 294 299 299 295 275 270 278 295 38 36 28 26 354 356 355 344 350 357 357 357 359 355 348 344 342 342 339 337 334 332 330 328
245 237 233 231 229 231 228 227 230 234 239 242 247 250 248 247 249 250 249 250 247 248 246 236 229 228 230 230 228 228 226 226 225 221 217 211 203 198 195 194 196 197 198 201 206 209 213 215 219 231 245 261 280 292 294 290 284 269 265 270 281 336 342 15 21 344 353 351 338 348 355 356 357 357 355 348 343 340 341 338 335 333 329 328 326
238 235 232 228 230 235 233 230 228 230 236 239 244 247 247 247 249 249 247 246 244 243 241 233 227 224 225 226 225 224 223 224 223 219 216 211 205 201 199 200 202 203 203 205 208 211 214 216 221 231 247 263 280 293 297 293 284 267 260 271 287 295 292 353 4 325 341 342 337 346 351 354 354 354 353 348 343 339 340 338 334 331 328 326 325
243 240 236 232 229 231 232 233 231 229 232 235 238 243 244 246 247 245 244 243 242 239 236 232 228 224 224 224 224 224 224 224 222 219 217 214 211 208 207 208 210 211 209 209 211 215 218 217 222 233 249 266 282 294 300 296 284 273 264 269 285 295 301 311 309 314 326 330 337 345 347 350 350 350 350 347 343 340 339 337 333 328 326 324 324
253 250 249 246 237 234 236 238 235 231 230 230 233 238 241 245 248 245 242 242 241 237 233 231 229 227 226 226 226 227 226 224 222 221 219 220 219 216 216 216 219 220 216 213 213 217 220 220 224 234 251 268 282 293 299 297 287 279 271 266 273 287 299 300 306 321 320 324 336 340 344 348 346 345 345 344 342 339 339 336 331 328 326 325 325
256 257 255 250 240 237 239 240 238 233 229 227 229 236 240 242 249 249 242 240 240 236 232 231 231 229 229 228 229 229 226 223 223 224 222 223 224 222 222 222 225 227 223 218 216 219 220 221 226 236 254 270 281 292 300 301 297 288 277 272 270 276 286 294 307 320 316 323 333 334 339 343 343 341 338 339 340 340 339 335 331 329 328 327 327
251 251 248 246 242 239 237 236 238 238 234 231 230 235 240 240 246 250 243 238 238 236 233 233 233 232 231 230 230 228 226 224 224 226 226 225 225 225 224 225 228 230 228 222 217 219 221 222 228 239 256 272 284 293 299 300 298 290 282 278 275 274 278 288 302 308 309 320 329 328 334 339 340 338 335 336 338 340 339 335 332 330 329 328 328
247 244 243 245 248 243 240 238 237 244 246 243 239 237 240 240 242 247 244 238 236 235 234 235 235 234 233 231 229 228 226 227 227 227 228 228 227 226 225 225 228 230 229 225 219 219 221 222 228 240 256 271 284 292 297 297 295 289 284 281 279 278 282 291 297 298 304 318 325 323 329 337 338 335 332 333 336 339 337 334 332 330 330 329 329
247 247 245 246 252 247 241 239 232 234 243 245 242 240 241 240 240 242 242 237 235 234 234 236 237 237 235 231 230 229 228 229 229 229 230 231 230 227 226 225 226 228 228 226 221 219 221 224 228 238 252 266 278 287 294 297 294 287 284 282 282 281 281 286 289 291 300 315 318 318 327 334 334 332 329 331 335 338 337 333 331 331 332 332 331
245 249 246 242 250 248 239 234 229 231 236 236 236 237 241 241 238 239 239 238 236 235 234 235 237 237 236 233 231 230 229 229 229 231 232 233 232 229 226 225 225 225 226 226 222 220 220 224 229 237 249 261 273 282 289 294 291 285 282 281 282 281 278 280 284 287 293 307 311 313 325 330 331 331 329 332 337 339 338 335 333 332 334 334 333
244 246 245 241 244 248 242 235 232 236 236 232 230 231 235 239 238 236 238 240 239 236 235 235 236 237 235 233 230 229 229 229 229 230 231 233 233 231 227 226 225 225 225 224 222 221 220 223 229 237 247 257 266 276 284 288 287 281 279 279 278 277 277 277 282 288 290 301 310 314 323 326 329 330 330 334 338 340 339 336 333 333 334 334 333
245 242 243 243 243 249 256 246 238 242 237 231 232 230 232 236 238 236 235 238 239 237 236 237 237 236 234 230 228 227 227 228 229 229 229 231 232 231 228 226 226 226 225 224 222 221 220 223 229 237 246 254 261 268 277 282 281 278 276 275 273 272 275 277 281 288 291 299 311 315 321 323 326 329 332 335 337 340 340 337 334 333 334 335 335
247 244 244 245 244 246 254 252 243 244 240 235 237 237 234 234 235 235 234 234 235 235 234 235 237 235 231 228 226 224 225 226 227 227 227 229 230 230 228 226 226 227 227 226 224 223 222 224 229 236 244 252 258 262 269 276 275 272 274 273 270 268 270 275 281 288 294 302 309 314 319 320 323 327 332 336 336 338 340 339 338 336 337 337 337
246 246 245 245 244 244 247 248 244 244 243 239 238 238 237 233 229 230 233 234 232 231 231 232 234 234 231 228 226 224 224 226 226 225 225 226 228 230 228 226 226 227 228 228 227 226 226 227 231 237 243 250 256 258 263 269 270 268 268 270 268 266 266 272 281 289 295 302 305 307 315 317 318 325 330 333 336 338 340 340 339 339 339 338 338
246 245 244 244 243 243 243 243 244 245 246 245 242 237 236 234 230 229 229 231 231 229 229 230 233 235 232 229 227 226 226 226 226 225 225 225 226 228 228 227 226 227 227 228 229 229 230 233 235 238 243 249 253 256 259 263 266 265 263 264 264 263 264 270 277 284 290 297 302 304 312 315 314 321 325 328 335 339 340 339 339 339 339 339 339
247 245 243 243 242 242 241 241 243 244 244 246 245 239 235 233 233 233 229 227 229 229 228 230 234 235 234 231 229 229 229 228 227 225 225 225 225 226 228 229 228 227 227 228 230 232 235 238 240 242 245 249 253 255 258 259 261 262 261 261 261 263 262 265 271 277 283 289 296 304 313 315 311 317 322 325 331 336 338 339 338 338 338 338 339
246 245 242 241 242 242 241 240 241 243 241 242 244 240 236 234 235 237 233 228 228 230 230 228 230 232 233 232 231 231 232 231 229 227 227 226 225 226 227 229 230 229 228 227 229 233 238 242 244 246 249 251 254 256 257 259 260 259 259 258 259 263 263 263 268 273 276 281 292 304 311 312 312 315 319 324 329 332 336 339 337 337 338 338 339
246 246 244 241 241 241 240 240 239 240 239 241 244 243 240 238 239 240 238 235 231 229 230 227 226 228 229 232 231 230 231 231 230 228 228 228 226 226 227 228 230 230 230 229 229 233 238 243 247 249 252 254 255 257 259 260 261 260 258 257 258 263 265 265 266 269 272 278 288 300 303 306 311 312 315 321 327 330 334 338 338 337 339 339 339
246 246 245 243 242 240 239 239 238 238 238 240 244 245 244 242 241 242 242 243 236 230 229 227 225 225 227 230 230 230 230 230 229 229 229 229 228 227 227 228 229 230 231 232 232 234 238 244 248 251 253 255 256 257 259 260 261 261 259 258 258 261 268 270 266 266 271 276 282 288 293 299 305 309 312 319 325 327 329 335 338 338 339 340 340
245 245 245 244 243 241 239 239 239 239 239 239 242 243 244 243 241 242 244 246 240 231 229 227 225 223 224 228 231 232 232 230 229 228 229 230 230 228 228 229 229 230 232 234 235 236 240 243 247 251 253 255 256 257 258 259 260 261 260 258 258 260 266 270 270 268 270 275 277 278 284 292 301 308 313 318 324 326 327 331 335 336 338 338 339
242 243 243 243 244 242 239 239 240 240 240 240 241 240 241 241 240 240 242 245 238 229 228 227 223 222 223 225 229 232 233 231 229 227 228 229 230 231 230 230 230 230 231 234 237 239 241 243 246 249 252 254 256 257 257 257 258 259 259 258 257 260 265 267 270 271 271 273 274 275 280 288 297 305 311 316 320 324 327 331 334 335 335 335 335
239 242 242 241 243 243 239 238 240 241 241 241 241 240 238 236 238 240 241 244 237 229 229 228 224 223 223 223 226 230 232 232 230 228 228 229 231 232 233 232 232 232 233 235 238 240 242 245 246 248 251 254 256 257 257 255 256 257 258 257 257 259 264 266 269 271 271 271 271 273 277 283 292 301 309 314 316 321 327 329 332 332 332 332 331
239 241 242 241 241 242 240 237 239 242 241 240 240 241 238 234 235 240 241 243 240 233 229 227 226 227 226 226 227 227 230 232 231 230 230 231 231 231 231 232 233 234 236 237 238 240 243 245 247 247 249 252 254 256 257 256 255 256 257 257 257 259 262 266 270 271 270 270 270 272 276 282 289 297 305 312 314 319 324 327 330 330 328 329 328
240 239 241 242 241 242 241 237 237 241 242 240 238 239 239 236 235 236 238 240 240 237 233 228 228 231 231 232 230 228 228 230 232 234 233 233 233 232 232 232 235 238 239 240 240 241 243 245 247 248 248 249 252 254 256 255 254 255 257 257 257 259 261 265 270 273 271 271 270 270 276 284 289 294 300 308 312 316 321 325 329 329 325 323 323
242 240 240 242 241 240 242 241 236 237 241 240 237 237 239 239 238 238 237 239 241 243 242 236 233 235 235 235 232 229 227 228 231 235 234 234 233 234 235 234 236 238 239 240 241 241 243 245 247 249 250 250 250 252 254 254 254 255 256 257 257 259 261 263 267 272 272 271 271 272 278 286 291 295 301 308 310 311 316 322 326 327 324 320 317
243 242 240 241 241 240 241 243 240 236 237 238 237 235 237 239 241 241 241 242 244 244 244 242 239 238 237 237 233 229 227 227 230 234 234 235 234 234 235 233 233 235 237 238 240 241 243 244 247 250 250 250 249 249 251 253 253 254 255 256 258 260 262 263 264 268 271 271 271 274 280 288 294 301 306 308 308 305 309 317 322 324 323 318 313
245 243 242 241 241 240 240 243 245 241 237 236 236 233 234 237 240 243 243 242 244 243 240 240 240 237 236 236 231 228 227 227 229 232 234 235 235 235 235 232 230 232 236 237 238 240 242 243 245 247 247 247 246 246 248 251 252 253 254 255 258 260 261 262 263 265 268 270 272 275 281 290 297 301 305 306 305 303 304 310 316 320 320 315 311
249 246 244 242 242 241 240 242 245 245 241 237 235 234 234 235 235 238 241 240 243 243 238 238 240 237 235 232 227 226 226 226 228 232 235 236 236 235 234 231 229 230 234 236 237 239 240 241 244 245 244 243 243 244 246 249 251 252 253 253 256 258 260 261 262 262 264 267 270 276 284 292 297 298 300 302 303 303 303 305 307 310 312 311 308
254 250 247 244 243 242 242 242 244 247 246 241 236 235 235 236 236 237 239 240 247 246 238 237 239 238 238 233 226 224 224 225 228 233 235 236 236 234 232 230 228 229 232 235 236 236 237 240 242 244 242 240 240 242 244 247 249 251 252 252 254 256 258 260 260 260 262 265 269 275 283 290 295 296 297 299 300 303 304 302 300 302 304 306 307
255 253 251 248 245 243 243 244 245 247 248 245 240 237 236 236 237 239 240 240 246 249 240 236 238 240 243 238 227 222 222 223 227 231 233 234 234 233 231 229 228 228 230 233 234 234 236 239 242 243 242 240 239 241 244 246 248 250 251 252 253 254 256 258 258 258 261 265 270 274 281 288 292 294 296 296 298 302 303 299 297 298 301 304 306
Height
5859 5860 5861 5862 5863 5864 5865 5866 5866 5867 5867 5868 5868 5869 5869 5870 5869 5868 5868 5868 5868 5869 5869 5870 5871 5871 5871 5871 5871 5871 5871 5870 5870 5870 5870 5870 5870 5870 5870 5870 5869 5869 5869 5869 5870 5870 5870 5869 5869 5869 5869 5868 5868 5868 5867 5867 5867 5866 5866 5866 5866 5866 5865 5865 5865 5865 5865 5865 5865 5865 5865 5865 5865 5864 5864 5864 5864 5864 5864 5864 5864 5864 5863 5863 5863
5858 5859 5860 5861 5862 5862 5864 5864 5865 5866 5866 5867 5868 5868 5868 5869 5869 5868 5867 5867 5868 5868 5869 5870 5870 5870 5871 5871 5871 5870 5870 5870 5870 5869 5869 5869 5869 5870 5870 5870 5869 5869 5869 5869 5869 5870 5870 5869 5869 5869 5869 5868 5868 5868 5867 5867 5867 5866 5866 5866 5865 5865 5865 5865 5865 5865 5865 5865 5865 5865 5865 5865 5864 5864 5864 5864 5864 5864 5864 5864 5864 5863 5863 5863 5862
5858 5858 5859 5860 5861 5861 5862 5863 5864 5864 5865 5866 5867 5867 5867 5868 5868 5867 5867 5867 5867 5868 5868 5869 5870 5870 5870 5870 5870 5870 5870 5870 5869 5869 5869 5869 5869 5869 5870 5870 5870 5869 5869 5869 5869 5869 5869 5869 5869 5869 5868 5868 5868 5867 5867 5866 5866 5866 5866 5865 5865 5865 5865 5865 5865 5865 5865 5865 5865 5865 5865 5864 5864 5864 5864 5864 5864 5864 5864 5863 5863 5863 5862 5862 5862
5857 5858 5858 5859 5860 5861 5861 5862 5863 5863 5864 5865 5866 5866 5866 5867 5867 5867 5866 5866 5866 5867 5868 5868 5869 5869 5869 5869 5869 5869 5869 5869 5869 5868 5868 5869 5869 5869 5870 5870 5870 5869 5869 5869 5869 5869 5869 5869 5869 5869 5868 5868 5867 5867 5867 5866 5866 5866 5865 5865 5865 5865 5865 5865 5865 5865 5865 5865 5864 5864 5864 5864 5864 5864 5864 5864 5864 5863 5863 5863 5863 5862 5862 5862 5861
5856 5857 5857 5858 5859 5860 5860 5861 5862 5862 5863 5864 5864 5865 5865 5866 5867 5866 5866 5865 5866 5866 5867 5867 5868 5868 5868 5868 5868 5869 5869 5869 5868 5868 5868 5868 5869 5869 5869 5870 5870 5870 5869 5869 5869 5869 5869 5869 5869 5868 5868 5867 5867 5867 5866 5866 5866 5865 5865 5865 5865 5865 5865 5865 5865 5865 5864 5864 5864 5864 5864 5863 5863 5863 5863 5863 5863 5863 5863 5862 5862 5862 5861 5861 5860
5855 5856 5857 5857 5858 5859 5859 5860 5860 5861 5862 5862 5863 5864 5864 5865 5865 5866 5865 5865 5865 5865 5866 5866 5867 5867 5867 5867 5868 5868 5868 5868 5868 5867 5867 5868 5868 5869 5869 5870 5870 5870 5869 5869 5869 5869 5869 5869 5868 5868 5868 5867 5867 5867 5866 5866 5865 5865 5865 5865 5865 5864 5864 5864 5864 5864 5864 5864 5864 5863 5863 5863 5863 5863 5863 5863 5863 5863 5862 5862 5861 5861 5860 5860 5860
5855 5855 5856 5856 5857 5858 5858 5859 5859 5860 5860 5861 5862 5863 5863 5864 5864 5864 5864 5864 5864 5865 5865 5865 5866 5866 5867 5867 5867 5867 5867 5867 5867 5867 5867 5867 5868 5868 5869 5869 5870 5870 5869 5869 5869 5869 5869 5868 5868 5868 5867 5867 5867 5866 5866 5866 5865 5865 5864 5864 5864 5864 5864 5864 5864 5864 5864 5863 5863 5863 5863 5863 5863 5863 5863 5862 5862 5862 5862 5861 5861 5860 5860 5859 5859
5853 5854 5855 5855 5856 5857 5857 5858 5858 5859 5859 5860 5861 5861 5862 5862 5863 5863 5863 5864 5864 5864 5864 5865 5865 5865 5866 5866 5866 5866 5867 5867 5867 5866 5866 5867 5867 5868 5868 5869 5869 5869 5869 5869 5869 5869 5868 5868 5868 5867 5867 5867 5866 5866 5866 5865 5865 5865 5864 5864 5864 5864 5864 5864 5864 5864 5864 5863 5863 5862 5863 5863 5863 5863 5862 5862 5862 5862 5861 5861 5860 5860 5859 5859 5858
5851 5852 5853 5854 5855 5855 5856 5857 5857 5857 5858 5859 5859 5860 5861 5861 5862 5862 5862 5862 5863 5863 5863 5864 5864 5864 5865 5865 5865 5866 5866 5866 5866 5866 5866 5866 5867 5867 5868 5868 5869 5869 5869 5869 5868 5868 5868 5868 5867 5867 5867 5866 5866 5866 5866 5865 5865 5865 5864 5864 5864 5864 5864 5864 5864 5864 5863 5863 5863 5863 5863 5863 5863 5863 5862 5862 5862 5861 5861 5860 5860 5859 5859 5858 5858
5849 5850 5851 5852 5853 5854 5855 5855 5856 5856 5857 5858 5858 5859 5860 5860 5861 5861 5861 5862 5862 5862 5862 5863 5863 5864 5864 5864 5864 5865 5865 5865 5865 5865 5865 5865 5866 5867 5867 5868 5868 5868 5868 5869 5868 5868 5868 5867 5867 5867 5866 5866 5866 5866 5866 5865 5865 5865 5864 5864 5864 5864 5864 5863 5863 5863 5863 5863 5863 5863 5863 5863 5863 5863 5862 5862 5862 5861 5861 5860 5859 5859 5858 5858 5857
5847 5848 5849 5851 5852 5853 5854 5854 5855 5855 5856 5857 5857 5858 5858 5859 5859 5860 5860 5861 5861 5861 5861 5862 5862 5863 5863 5863 5863 5864 5865 5865 5865 5864 5864 5865 5865 5866 5867 5867 5867 5868 5868 5868 5868 5868 5868 5867 5867 5867 5866 5866 5866 5865 5866 5866 5865 5865 5864 5864 5864 5864 5863 5863 5863 5863 5863 5863 5863 5863 5863 5863 5863 5863 5862 5862 5861 5861 5860 5860 5859 5858 5858 5857 5857
5843 5845 5846 5848 5850 5851 5852 5853 5854 5854 5855 5856 5856 5856 5857 5858 5858 5859 5859 5860 5860 5860 5860 5861 5861 5862 5862 5862 5862 5863 5864 5864 5864 5864 5864 5864 5865 5865 5866 5867 5867 5867 5867 5868 5868 5868 5868 5867 5867 5867 5866 5866 5866 5865 5865 5866 5866 5865 5864 5864 5863 5863 5863 5863 5862 5863 5863 5863 5863 5863 5863 5863 5862 5862 5862 5861 5861 5860 5860 5859 5859 5858 5857 5857 5856
5836 5839 5842 5844 5847 5848 5850 5851 5852 5853 5854 5854 5855 5856 5856 5857 5857 5858 5858 5859 5859 5859 5859 5860 5860 5861 5861 5861 5861 5861 5862 5864 5864 5863 5863 5863 5864 5864 5865 5866 5867 5867 5867 5867 5867 5868 5867 5867 5867 5866 5866 5865 5865 5865 5865 5865 5865 5865 5864 5863 5863 5863 5863 5862 5862 5862 5863 5863 5863 5863 5863 5862 5862 5862 5862 5861 5861 5860 5859 5859 5858 5858 5857 5856 5855
5833 5835 5838 5841 5844 5846 5848 5849 5851 5851 5852 5853 5854 5854 5855 5855 5856 5857 5857 5857 5858 5858 5859 5859 5859 5860 5860 5860 5861 5860 5861 5863 5863 5863 5863 5863 5863 5864 5865 5865 5866 5866 5867 5867 5867 5867 5867 5867 5866 5866 5866 5865 5865 5865 5865 5865 5865 5864 5864 5863 5863 5862 5862 5862 5862 5862 5862 5862 5862 5862 5862 5862 5862 5862 5861 5861 5860 5860 5859 5859 5858 5857 5857 5856 5855
5836 5835 5837 5839 5841 5844 5846 5847 5849 5850 5851 5851 5852 5853 5853 5854 5855 5855 5856 5856 5856 5857 5857 5858 5858 5859 5859 5859 5860 5860 5860 5861 5862 5862 5862 5862 5863 5863 5864 5864 5865 5866 5866 5866 5866 5867 5867 5867 5866 5866 5865 5865 5865 5865 5865 5865 5864 5864 5863 5862 5862 5862 5862 5862 5862 5862 5862 5862 5862 5862 5862 5862 5862 5861 5861 5861 5860 5859 5859 5858 5858 5857 5856 5856 5855
5836 5836 5836 5837 5839 5842 5844 5845 5846 5848 5849 5849 5850 5851 5852 5852 5853 5854 5854 5855 5855 5856 5856 5857 5857 5858 5858 5858 5859 5859 5859 5860 5861 5862 5862 5862 5862 5863 5863 5864 5864 5865 5866 5866 5866 5866 5866 5866 5866 5866 5865 5865 5865 5864 5864 5864 5864 5863 5863 5862 5862 5861 5862 5862 5862 5863 5863 5863 5862 5862 5862 5862 5862 5861 5861 5860 5860 5859 5858 5858 5857 5857 5856 5855 5855
5834 5835 5835 5837 5838 5840 5842 5843 5844 5846 5846 5847 5848 5849 5849 5850 5851 5852 5852 5853 5854 5854 5855 5855 5856 5857 5857 5857 5857 5858 5858 5858 5860 5861 5861 5861 5861 5862 5863 5863 5864 5864 5865 5865 5865 5866 5866 5866 5866 5866 5865 5865 5865 5864 5864 5864 5863 5862 5862 5862 5861 5861 5861 5862 5862 5863 5863 5863 5862 5862 5862 5862 5862 5861 5861 5860 5860 5859 5858 5858 5857 5856 5856 5855 5854
5832 5833 5835 5836 5837 5838 5840 5841 5842 5843 5844 5845 5845 5846 5847 5847 5848 5849 5850 5851 5852 5853 5853 5854 5855 5855 5856 5856 5856 5856 5856 5857 5858 5860 5860 5860 5861 5861 5862 5863 5864 5864 5864 5865 5865 5865 5865 5865 5866 5866 5866 5865 5865 5864 5863 5863 5863 5862 5862 5861 5861 5860 5861 5861 5862 5862 5862 5862 5862 5862 5862 5862 5861 5861 5861 5860 5859 5859 5858 5857 5857 5856 5855 5855 5854
5830 5832 5833 5834 5835 5835 5837 5838 5839 5841 5842 5842 5843 5843 5844 5845 5846 5846 5847 5848 5850 5851 5851 5852 5853 5854 5854 5855 5855 5855 5855 5855 5856 5858 5859 5859 5860 5860 5861 5862 5863 5863 5864 5864 5864 5864 5864 5865 5865 5865 5866 5865 5865 5864 5863 5863 5862 5862 5861 5861 5860 5860 5860 5860 5860 5861 5861 5861 5862 5862 5862 5861 5861 5861 5860 5860 5859 5858 5858 5857 5856 5856 5855 5854 5853
5827 5829 5830 5830 5831 5832 5833 5835 5836 5837 5838 5839 5840 5841 5841 5842 5843 5844 5845 5846 5847 5848 5849 5850 5851 5852 5853 5853 5854 5854 5853 5854 5855 5856 5857 5858 5859 5859 5860 5861 5862 5863 5863 5863 5864 5864 5864 5864 5865 5865 5865 5865 5865 5864 5863 5862 5862 5862 5861 5860 5860 5860 5859 5859 5859 5860 5860 5861 5861 5861 5861 5861 5861 5860 5860 5860 5859 5858 5858 5857 5856 5855 5855 5854 5853
5823 5825 5826 5826 5826 5827 5829 5830 5832 5833 5834 5835 5836 5837 5838 5839 5840 5842 5842 5843 5845 5846 5847 5848 5849 5850 5851 5852 5853 5853 5852 5853 5854 5855 5856 5857 5857 5858 5859 5861 5861 5862 5862 5863 5863 5863 5863 5864 5864 5865 5865 5865 5864 5864 5863 5862 5861 5861 5861 5860 5860 5860 5859 5858 5859 5859 5859 5860 5861 5861 5861 5860 5860 5860 5860 5859 5859 5858 5857 5857 5856 5855 5854 5853 5852
5820 5823 5824 5823 5821 5822 5824 5826 5827 5829 5830 5832 5833 5834 5835 5836 5838 5839 5840 5840 5842 5844 5845 5846 5847 5849 5850 5851 5852 5852 5852 5852 5853 5854 5855 5856 5856 5857 5858 5860 5860 5861 5862 5862 5862 5862 5863 5863 5864 5864 5865 5865 5864 5863 5863 5862 5861 5861 5861 5860 5860 5860 5859 5858 5858 5859 5859 5860 5861 5861 5860 5860 5860 5860 5859 5859 5858 5858 5857 5856 5856 5855 5854 5853 5852
5819 5820 5821 5819 5818 5818 5819 5821 5823 5824 5826 5828 5829 5830 5832 5833 5835 5836 5837 5838 5840 5842 5843 5844 5845 5847 5849 5850 5850 5851 5851 5852 5852 5853 5854 5855 5856 5856 5857 5858 5859 5860 5861 5861 5861 5862 5862 5862 5863 5863 5864 5864 5864 5863 5862 5861 5861 5860 5860 5860 5860 5859 5858 5858 5858 5858 5859 5860 5861 5860 5860 5860 5859 5859 5859 5858 5858 5857 5857 5856 5855 5854 5853 5852 5851
5814 5814 5814 5813 5812 5813 5815 5817 5819 5821 5822 5825 5827 5828 5829 5830 5832 5834 5835 5836 5838 5840 5841 5842 5844 5845 5847 5848 5849 5850 5850 5851 5851 5852 5853 5854 5855 5855 5856 5857 5858 5859 5860 5860 5861 5861 5861 5862 5862 5863 5863 5864 5863 5862 5862 5861 5860 5860 5859 5859 5859 5859 5858 5857 5858 5858 5859 5860 5861 5860 5859 5859 5859 5859 5858 5858 5857 5857 5856 5855 5854 5853 5852 5852 5851
5806 5809 5811 5811 5810 5810 5812 5814 5815 5817 5819 5822 5824 5826 5827 5828 5829 5832 5833 5835 5837 5838 5840 5841 5842 5843 5845 5846 5847 5848 5849 5849 5850 5851 5852 5853 5853 5854 5855 5856 5857 5858 5859 5859 5860 5860 5860 5861 5861 5862 5862 5863 5863 5862 5861 5861 5860 5859 5859 5858 5858 5858 5858 5857 5858 5858 5859 5860 5860 5860 5859 5859 5859 5859 5858 5857 5857 5856 5855 5854 5853 5852 5852 5851 5850
5803 5808 5810 5811 5812 5812 5813 5814 5813 5813 5815 5819 5822 5824 5825 5827 5828 5830 5832 5833 5835 5837 5838 5839 5840 5842 5843 5844 5845 5846 5847 5848 5848 5849 5850 5851 5852 5853 5854 5855 5856 5857 5857 5858 5858 5859 5859 5860 5860 5861 5861 5862 5862 5861 5861 5860 5860 5859 5858 5858 5858 5857 5857 5857 5857 5858 5859 5860 5860 5859 5859 5859 5859 5859 5858 5857 5856 5855 5855 5854 5853 5852 5851 5850 5849
5802 5805 5807 5809 5810 5810 5811 5813 5814 5812 5813 5815 5819 5822 5824 5826 5827 5828 5829 5831 5833 5835 5836 5837 5839 5840 5841 5842 5843 5844 5845 5846 5847 5847 5849 5850 5851 5852 5852 5853 5854 5855 5856 5857 5857 5858 5858 5859 5859 5860 5860 5861 5861 5860 5860 5859 5859 5858 5858 5858 5857 5857 5858 5857 5857 5857 5858 5859 5859 5859 5859 5859 5859 5858 5857 5856 5855 5855 5854 5853 5852 5851 5850 5849 5848
5800 5801 5801 5803 5804 5807 5807 5809 5812 5813 5814 5815 5817 5819 5821 5824 5825 5826 5827 5829 5831 5833 5834 5836 5837 5838 5840 5840 5841 5842 5843 5844 5845 5846 5847 5848 5849 5850 5851 5851 5853 5854 5855 5855 5856 5856 5857 5858 5858 5859 5859 5860 5860 5860 5859 5858 5858 5857 5857 5857 5857 5857 5858 5857 5857 5857 5858 5858 5858 5859 5859 5859 5858 5857 5856 5855 5854 5854 5853 5852 5851 5850 5849 5848 5847
5795 5797 5797 5799 5801 5803 5805 5807 5811 5813 5815 5816 5816 5817 5818 5821 5823 5823 5825 5827 5829 5831 5832 5833 5835 5836 5838 5839 5840 5841 5842 5842 5843 5844 5845 5846 5847 5848 5849 5850 5851 5852 5853 5854 5855 5855 5856 5856 5857 5858 5858 5859 5859 5859 5858 5858 5858 5857 5857 5857 5857 5857 5857 5857 5857 5857 5857 5858 5858 5858 5858 5858 5857 5857 5856 5855 5854 5853 5852 5852 5851 5849 5848 5847 5846
5791 5794 5795 5797 5797 5798 5800 5803 5807 5807 5809 5811 5813 5815 5815 5817 5819 5821 5822 5824 5827 5828 5830 5831 5832 5834 5835 5837 5838 5839 5840 5841 5841 5842 5844 5844 5846 5847 5847 5848 5849 5850 5851 5852 5853 5854 5854 5855 5856 5856 5857 5857 5858 5858 5857 5857 5857 5857 5857 5856 5856 5856 5856 5856 5857 5857 5857 5857 5858 5858 5858 5857 5856 5856 5855 5854 5853 5852 5852 5851 5850 5849 5848 5847 5846
5789 5791 5792 5793 5793 5793 5794 5797 5800 5800 5800 5802 5806 5810 5812 5814 5816 5818 5819 5822 5824 5825 5827 5828 5830 5832 5833 5835 5836 5837 5838 5839 5840 5840 5842 5843 5844 5845 5846 5846 5847 5848 5850 5851 5851 5852 5853 5854 5854 5855 5855 5856 5856 5856 5856 5856 5856 5856 5856 5856 5856 5856 5856 5856 5856 5856 5856 5857 5857 5857 5857 5856 5856 5855 5854 5853 5852 5852 5851 5850 5849 5848 5847 5846 5846
5787 5789 5788 5788 5788 5790 5791 5793 5795 5797 5798 5797 5799 5803 5807 5809 5812 5815 5817 5819 5821 5822 5824 5826 5828 5829 5831 5832 5834 5835 5836 5837 5838 5839 5840 5841 5842 5843 5844 5844 5845 5847 5848 5849 5849 5850 5851 5852 5853 5854 5854 5855 5855 5855 5855 5855 5855 5855 5855 5855 5855 5855 5855 5855 5855 5855 5856 5856 5856 5856 5856 5855 5855 5854 5853 5852 5852 5851 5850 5849 5848 5847 5847 5846 5845
5783 5785 5785 5784 5786 5789 5790 5791 5793 5795 5797 5798 5798 5800 5803 5806 5808 5811 5813 5815 5817 5820 5822 5824 5825 5826 5828 5829 5831 5832 5833 5834 5835 5837 5838 5839 5840 5842 5843 5843 5843 5845 5846 5847 5848 5849 5849 5851 5852 5852 5853 5853 5854 5854 5854 5854 5854 5854 5854 5854 5855 5854 5854 5854 5854 5854 5855 5855 5855 5855 5855 5854 5853 5853 5852 5852 5851 5850 5850 5849 5848 5847 5846 5845 5844
5777 5778 5780 5782 5785 5788 5787 5789 5792 5793 5795 5797 5798 5800 5803 5804 5805 5807 5809 5810 5813 5815 5819 5821 5822 5823 5824 5826 5827 5829 5830 5832 5833 5834 5835 5837 5838 5839 5841 5841 5842 5843 5845 5846 5846 5847 5848 5849 5850 5851 5851 5852 5852 5853 5853 5853 5853 5853 5853 5853 5853 5854 5853 5853 5853 5853 5853 5854 5854 5853 5853 5853 5852 5852 5851 5851 5850 5850 5849 5848 5847 5846 5845 5844 5844
5771 5772 5776 5779 5782 5784 5784 5786 5789 5791 5793 5794 5796 5798 5800 5803 5804 5804 5804 5806 5808 5811 5814 5817 5818 5820 5821 5823 5824 5826 5827 5829 5830 5831 5833 5834 5835 5837 5838 5839 5840 5842 5843 5844 5845 5846 5847 5847 5848 5849 5849 5850 5851 5851 5851 5851 5852 5852 5852 5852 5852 5852 5852 5852 5852 5852 5852 5852 5853 5852 5852 5851 5851 5851 5850 5850 5849 5849 5847 5847 5846 5845 5844 5843 5843
5766 5768 5772 5775 5777 5780 5781 5783 5787 5788 5790 5792 5793 5795 5797 5799 5801 5801 5802 5802 5804 5806 5809 5812 5815 5817 5818 5820 5822 5823 5824 5826 5827 5829 5830 5832 5833 5835 5836 5837 5838 5840 5842 5843 5844 5845 5846 5846 5847 5847 5848 5848 5849 5849 5850 5850 5850 5850 5850 5850 5851 5851 5851 5851 5851 5851 5850 5850 5851 5851 5851 5851 5850 5849 5849 5849 5849 5848 5846 5845 5845 5844 5843 5842 5841
5762 5764 5768 5772 5773 5775 5778 5781 5783 5784 5787 5789 5790 5792 5793 5795 5797 5798 5799 5799 5800 5802 5806 5809 5812 5814 5816 5818 5820 5822 5823 5824 5825 5827 5828 5829 5831 5832 5834 5835 5837 5838 5840 5841 5842 5844 5845 5845 5845 5846 5846 5847 5847 5848 5848 5849 5849 5849 5849 5849 5849 5849 5850 5850 5850 5850 5849 5849 5849 5849 5850 5850 5849 5848 5848 5848 5848 5847 5846 5845 5844 5843 5842 5841 5840
5758 5759 5763 5767 5769 5771 5774 5778 5779 5780 5783 5785 5786 5788 5790 5791 5793 5794 5797 5798 5798 5799 5802 5805 5809 5812 5814 5817 5818 5820 5821 5822 5824 5825 5826 5827 5829 5830 5832 5834 5835 5837 5838 5839 5840 5842 5843 5844 5844 5845 5845 5845 5846 5846 5847 5847 5848 5848 5848 5848 5848 5848 5848 5849 5848 5848 5848 5848 5847 5848 5848 5848 5848 5847 5847 5846 5846 5845 5844 5844 5843 5842 5841 5840 5839
5754 5755 5758 5762 5764 5767 5770 5773 5775 5776 5778 5780 5782 5784 5786 5789 5790 5791 5794 5796 5797 5798 5799 5802 5806 5809 5812 5814 5816 5818 5819 5820 5822 5823 5824 5826 5827 5829 5830 5832 5834 5835 5836 5837 5838 5839 5841 5842 5843 5843 5843 5844 5844 5845 5846 5846 5846 5846 5847 5847 5847 5847 5847 5847 5847 5847 5847 5846 5846 5846 5846 5846 5847 5846 5846 5845 5844 5843 5842 5842 5842 5841 5840 5839 5838
5751 5751 5753 5755 5758 5763 5765 5768 5770 5771 5774 5776 5777 5779 5782 5786 5787 5788 5791 5792 5794 5796 5797 5799 5802 5806 5809 5811 5814 5815 5816 5818 5820 5822 5823 5824 5825 5827 5828 5830 5831 5833 5834 5835 5836 5837 5838 5840 5841 5841 5842 5842 5843 5843 5844 5845 5845 5845 5845 5845 5845 5845 5846 5846 5846 5846 5845 5845 5845 5845 5845 5845 5845 5845 5845 5844 5844 5843 5841 5840 5840 5839 5839 5838 5837
5746 5747 5748 5749 5752 5756 5759 5762 5765 5767 5769 5771 5773 5775 5778 5781 5783 5785 5787 5788 5789 5792 5794 5795 5798 5802 5805 5807 5810 5812 5814 5815 5818 5819 5820 5821 5822 5824 5826 5827 5829 5830 5832 5833 5834 5835 5836 5838 5839 5839 5840 5840 5841 5842 5842 5843 5844 5844 5844 5844 5844 5844 5844 5844 5845 5845 5844 5844 5844 5844 5844 5843 5843 5843 5843 5843 5843 5842 5841 5839 5838 5838 5838 5837 5836
5741 5741 5742 5744 5746 5750 5754 5756 5759 5761 5763 5765 5768 5770 5773 5776 5778 5779 5781 5783 5783 5786 5789 5791 5792 5796 5799 5802 5806 5809 5811 5812 5815 5816 5817 5818 5820 5821 5823 5825 5826 5827 5829 5830 5831 5833 5834 5835 5836 5837 5838 5839 5839 5840 5841 5841 5842 5842 5842 5843 5843 5843 5843 5843 5843 5843 5843 5843 5842 5842 5842 5842 5842 5841 5841 5841 5841 5841 5840 5838 5837 5836 5836 5835 5834
5737 5735 5737 5740 5741 5743 5748 5751 5752 5754 5757 5760 5762 5765 5767 5771 5773 5774 5776 5778 5779 5782 5784 5785 5786 5789 5792 5796 5800 5805 5808 5809 5811 5813 5814 5815 5817 5819 5821 5823 5824 5825 5826 5827 5829 5830 5832 5833 5834 5835 5836 5837 5837 5838 5839 5839 5840 5840 5841 5841 5841 5841 5841 5841 5842 5842 5842 5841 5841 5840 5840 5840 5840 5840 5840 5840 5839 5839 5839 5838 5836 5835 5835 5834 5833
5732 5731 5732 5736 5737 5737 5742 5745 5746 5747 5751 5755 5757 5759 5761 5764 5768 5770 5772 5774 5777 5779 5779 5779 5781 5785 5788 5792 5796 5800 5804 5806 5807 5809 5811 5812 5814 5816 5818 5820 5821 5822 5824 5825 5827 5828 5830 5831 5832 5832 5833 5834 5835 5836 5836 5837 5838 5838 5839 5839 5839 5839 5839 5839 5840 5840 5840 5840 5840 5839 5839 5838 5839 5839 5838 5838 5838 5838 5837 5837 5836 5835 5834 5833 5832
5726 5727 5728 5731 5733 5733 5735 5739 5741 5742 5744 5748 5751 5753 5755 5758 5761 5763 5766 5769 5773 5775 5776 5776 5779 5783 5787 5789 5793 5797 5800 5802 5804 5806 5808 5810 5812 5813 5815 5817 5819 5820 5821 5823 5824 5826 5827 5828 5829 5830 5831 5832 5832 5833 5834 5835 5835 5836 5836 5837 5837 5838 5837 5838 5838 5838 5838 5839 5838 5838 5837 5837 5837 5837 5837 5837 5837 5836 5836 5835 5835 5834 5833 5832 5832
5721 5722 5724 5726 5728 5729 5729 5731 5735 5737 5738 5742 5745 5747 5750 5753 5754 5757 5761 5764 5767 5771 5774 5776 5778 5781 5783 5785 5788 5791 5795 5798 5800 5802 5804 5806 5808 5809 5811 5814 5815 5817 5818 5820 5821 5823 5824 5826 5827 5828 5828 5829 5830 5831 5832 5832 5833 5834 5834 5835 5835 5836 5836 5836 5837 5836 5836 5837 5837 5836 5836 5836 5835 5836 5836 5835 5835 5835 5834 5834 5833 5833 5832 5831 5830
5716 5718 5720 5721 5723 5725 5725 5724 5726 5731 5734 5736 5740 5743 5745 5748 5750 5752 5756 5760 5762 5765 5770 5773 5776 5778 5778 5779 5782 5786 5789 5792 5796 5798 5800 5802 5804 5805 5807 5810 5812 5813 5814 5816 5818 5820 5821 5822 5824 5825 5826 5826 5827 5829 5829 5829 5830 5831 5831 5832 5833 5833 5834 5834 5835 5835 5835 5835 5835 5835 5834 5834 5834 5834 5834 5834 5834 5833 5832 5832 5831 5831 5830 5830 5829
5712 5713 5715 5716 5717 5720 5721 5720 5719 5722 5727 5731 5735 5739 5741 5743 5746 5748 5750 5754 5757 5760 5765 5767 5770 5772 5772 5773 5776 5780 5784 5787 5791 5794 5796 5798 5801 5802 5804 5806 5808 5809 5810 5813 5815 5816 5818 5819 5821 5821 5822 5823 5824 5825 5826 5827 5828 5828 5829 5830 5830 5831 5832 5832 5833 5833 5833 5833 5833 5833 5833 5833 5833 5832 5832 5832 5832 5831 5831 5830 5829 5829 5828 5828 5827
5706 5708 5709 5711 5713 5714 5716 5716 5714 5714 5719 5725 5730 5734 5736 5737 5740 5743 5744 5748 5751 5754 5759 5761 5762 5764 5766 5768 5770 5773 5777 5782 5786 5789 5791 5795 5797 5799 5800 5802 5805 5806 5807 5809 5811 5813 5815 5816 5817 5818 5819 5820 5821 5822 5823 5824 5825 5826 5827 5828 5828 5829 5830 5830 5831 5831 5831 5831 5831 5831 5831 5831 5831 5831 5831 5830 5830 5830 5829 5829 5828 5827 5827 5826 5826
5701 5702 5704 5705 5707 5709 5710 5711 5710 5709 5711 5717 5723 5726 5730 5732 5734 5737 5738 5742 5745 5748 5752 5755 5757 5759 5761 5764 5766 5767 5771 5776 5781 5784 5787 5791 5793 5795 5797 5799 5801 5802 5803 5805 5807 5810 5812 5813 5814 5814 5815 5816 5817 5819 5820 5822 5823 5823 5824 5825 5825 5826 5827 5828 5829 5829 5829 5829 5829 5829 5829 5830 5830 5829 5829 5828 5828 5828 5828 5827 5826 5825 5825 5825 5824
5697 5698 5699 5700 5702 5704 5705 5705 5706 5706 5705 5710 5715 5718 5721 5725 5729 5731 5733 5737 5740 5743 5746 5749 5752 5754 5756 5760 5762 5764 5767 5771 5775 5778 5782 5786 5789 5792 5793 5795 5796 5798 5800 5802 5804 5806 5808 5809 5810 5811 5812 5813 5814 5816 5817 5819 5820 5821 5822 5822 5823 5823 5824 5826 5826 5827 5827 5827 5827 5827 5827 5827 5827 5827 5827 5827 5826 5826 5826 5825 5824 5824 5823 5823 5822